Location: Newark
(47.3150°N, 5.1150°E)
Time: 19:08:41
(UTC+00:00)

O/OREOS (USA 219) - Pass Details

Date: 16 December 2019
Orbit: 621 x 646 km, 72.0° (Epoch: 22 May)

Event Time Altitude Azimuth Distance (km) Brightness Sun altitude
Exits shadow 04:35:09 16° 13° (NNE) 1,657 ? -26.8°
Maximum altitude 04:37:21 23° 50° (NE) 1,380 ? -26.5°
Drops below altitude 10° 04:40:58 10° 103° (ESE) 2,031 ? -25.8°
Sets 04:43:38 0° 118° (ESE) 2,931 ? -25.4°
